Tracking 20711 objects as of 30-May-2020
HD Live streaming from Space Station
objects crossing your sky now

FENGYUN 1C DEB

Track FENGYUN 1C DEB now!
10-day predictions


NORAD ID: 31018
Int'l Code: 1999-025BDL
Perigee: 835.6 km
Apogee: 934.2 km
Inclination: 99.1 °
Period: 102.5 minutes
Semi major axis: 7255 km
RCS: 0.0147 m2 (small)
Launch date: May 10, 1999
Source: People's Republic of China (PRC)
Launch site: Taiyaun Space Center, China (TSC)

Note: This is SATELLITE DEBRIS
aabbcc
Your satellite tracking list
Your tracking list is empty




NASA's NSSDC Master Catalog

Two Line Element Set (TLE):
1 31018U 99025BDL 20150.58882328 -.00000074 +00000-0 -17512-4 0  9993
2 31018 099.1433 196.4811 0067927 023.2618 337.1598 14.04642309675734
Source of the keplerian elements: AFSPC